| time (UTC) | temp F | wind direction | speed knots | gust knots | rain 1hr in | rain 24hr in | rain mn in | humidity % | barometer mb |
| 20260502221655 | 67 | 277 | 1.7 | 2.6 | 0.00 | 0.00 | 0.00 | 35 | 1019.3 |
| 20260502221153 | 67 | 274 | 0.9 | 0.9 | 0.00 | 0.00 | 0.00 | 36 | 1019.4 |
| 20260502220649 | 68 | 272 | 2.6 | 3.5 | 0.00 | 0.00 | 0.00 | 34 | 1019.3 |
| 20260502220145 | 67 | 247 | 2.6 | 3.5 | 0.00 | 0.00 | 0.00 | 35 | 1019.4 |
| 20260502215643 | 68 | 265 | 2.6 | 2.6 | 0.00 | 0.00 | 0.00 | 34 | 1019.5 |
| 20260502215139 | 67 | 267 | 0.0 | 0.0 | 0.00 | 0.00 | 0.00 | 37 | 1019.4 |
| 20260502214637 | 67 | 274 | 1.7 | 4.3 | 0.00 | 0.00 | 0.00 | 33 | 1019.4 |
| 20260502214133 | 68 | 279 | 3.5 | 3.5 | 0.00 | 0.00 | 0.00 | 34 | 1019.5 |
| 20260502213631 | 66 | 301 | 2.6 | 3.5 | 0.00 | 0.00 | 0.00 | 37 | 1019.5 |
| 20260502213128 | 68 | 273 | 4.3 | 4.3 | 0.00 | 0.00 | 0.00 | 35 | 1019.7 |
| 20260502212627 | 67 | 266 | 2.6 | 3.5 | 0.00 | 0.00 | 0.00 | 34 | 1019.6 |
| 20260502212125 | 68 | 292 | 2.6 | 3.5 | 0.00 | 0.00 | 0.00 | 39 | 1019.7 |
| 20260502211620 | 67 | 295 | 0.9 | 2.6 | 0.00 | 0.00 | 0.00 | 39 | 1019.7 |
| 20260502211117 | 67 | 45 | 3.5 | 3.5 | 0.00 | 0.00 | 0.00 | 35 | 1019.6 |
| 20260502210615 | 67 | 212 | 2.6 | 3.5 | 0.00 | 0.00 | 0.00 | 35 | 1019.8 |
| 20260502210111 | 68 | 272 | 4.3 | 6.1 | 0.00 | 0.00 | 0.00 | 35 | 1019.7 |
| 20260502205608 | 67 | 317 | 1.7 | 2.6 | 0.00 | 0.00 | 0.00 | 39 | 1019.6 |
| 20260502205105 | 68 | 311 | 4.3 | 4.3 | 0.00 | 0.00 | 0.00 | 34 | 1019.6 |
| 20260502204601 | 68 | 307 | 2.6 | 4.3 | 0.00 | 0.00 | 0.00 | 40 | 1020.2 |
| 20260502204100 | 67 | 82 | 0.9 | 0.9 | 0.00 | 0.00 | 0.00 | 38 | 1020.1 |
| 20260502203556 | 66 | 289 | 2.6 | 3.5 | 0.00 | 0.00 | 0.00 | 35 | 1020.1 |
| 20260502203054 | 66 | 275 | 4.3 | 6.1 | 0.00 | 0.00 | 0.00 | 34 | 1020.1 |
| 20260502202549 | 66 | 275 | 3.5 | 3.5 | 0.00 | 0.00 | 0.00 | 38 | 1020.2 |
| 20260502202048 | 66 | 246 | 3.5 | 3.5 | 0.00 | 0.00 | 0.00 | 36 | 1020.2 |
| 20260502201543 | 66 | 264 | 4.3 | 6.1 | 0.00 | 0.00 | 0.00 | 34 | 1020.3 |
| 20260502201040 | 67 | 258 | 1.7 | 2.6 | 0.00 | 0.00 | 0.00 | 37 | 1020.3 |
| 20260502200536 | 65 | 270 | 1.7 | 2.6 | 0.00 | 0.00 | 0.00 | 41 | 1020.2 |
| 20260502200034 | 68 | 319 | 3.5 | 4.3 | 0.00 | 0.00 | 0.00 | 35 | 1020.3 |
| 20260502195531 | 67 | 178 | 0.0 | 0.9 | 0.00 | 0.00 | 0.00 | 42 | 1020.4 |
| 20260502195027 | 66 | 179 | 0.0 | 0.9 | 0.00 | 0.00 | 0.00 | 37 | 1020.3 |
| 20260502194524 | 66 | 298 | 3.5 | 4.3 | 0.00 | 0.00 | 0.00 | 38 | 1020.4 |
| 20260502194020 | 66 | 262 | 3.5 | 3.5 | 0.00 | 0.00 | 0.00 | 43 | 1020.4 |
| 20260502193518 | 66 | 278 | 3.5 | 4.3 | 0.00 | 0.00 | 0.00 | 37 | 1020.5 |
| 20260502193014 | 66 | 282 | 3.5 | 3.5 | 0.00 | 0.00 | 0.00 | 38 | 1020.3 |
| 20260502192510 | 66 | 302 | 5.2 | 6.1 | 0.00 | 0.00 | 0.00 | 39 | 1020.3 |
| 20260502192008 | 65 | 253 | 4.3 | 6.1 | 0.00 | 0.00 | 0.00 | 38 | 1020.5 |
| 20260502191505 | 65 | 243 | 4.3 | 6.1 | 0.00 | 0.00 | 0.00 | 36 | 1020.2 |
| 20260502191002 | 66 | 309 | 4.3 | 6.1 | 0.00 | 0.00 | 0.00 | 38 | 1020.5 |
| 20260502190459 | 65 | 265 | 0.9 | 0.9 | 0.00 | 0.00 | 0.00 | 39 | 1020.6 |
| 20260502185955 | 65 | 266 | 2.6 | 3.5 | 0.00 | 0.00 | 0.00 | 37 | 1020.7 |
| 20260502185451 | 66 | 320 | 3.5 | 4.3 | 0.00 | 0.00 | 0.00 | 38 | 1020.5 |
| 20260502184948 | 66 | 275 | 3.5 | 3.5 | 0.00 | 0.00 | 0.00 | 40 | 1020.6 |
| 20260502184443 | 66 | 236 | 3.5 | 4.3 | 0.00 | 0.00 | 0.00 | 44 | 1020.6 |
| 20260502183940 | 65 | 298 | 0.9 | 0.9 | 0.00 | 0.00 | 0.00 | 41 | 1020.5 |
| 20260502183437 | 65 | 306 | 2.6 | 2.6 | 0.00 | 0.00 | 0.00 | 47 | 1020.6 |
| 20260502182931 | 65 | 290 | 2.6 | 3.5 | 0.00 | 0.00 | 0.00 | 43 | 1020.7 |
| 20260502182427 | 65 | 263 | 1.7 | 3.5 | 0.00 | 0.00 | 0.00 | 42 | 1020.7 |
| 20260502181924 | 65 | 255 | 3.5 | 4.3 | 0.00 | 0.00 | 0.00 | 39 | 1020.8 |
| 20260502181422 | 65 | 235 | 0.9 | 0.9 | 0.00 | 0.00 | 0.00 | 41 | 1020.7 |
| 20260502180920 | 64 | 252 | 1.7 | 2.6 | 0.00 | 0.00 | 0.00 | 40 | 1021.0 |
| 20260502180417 | 65 | 313 | 1.7 | 4.3 | 0.00 | 0.00 | 0.00 | 42 | 1021.0 |
| 20260502170336 | 65 | 278 | 1.7 | 2.6 | 0.00 | 0.00 | 0.00 | 44 | 1021.4 |
| 20260502164324 | 63 | 295 | 1.7 | 3.5 | 0.00 | 0.00 | 0.00 | 40 | 1021.6 |
| 20260502163819 | 64 | 252 | 0.9 | 0.9 | 0.00 | 0.00 | 0.00 | 43 | 1021.6 |
| 20260502163316 | 63 | 246 | 4.3 | 4.3 | 0.00 | 0.00 | 0.00 | 39 | 1021.6 |
| 20260502162813 | 64 | 251 | 0.9 | 0.9 | 0.00 | 0.00 | 0.00 | 41 | 1021.5 |
| 20260502162310 | 61 | 275 | 0.0 | 0.9 | 0.00 | 0.00 | 0.00 | 42 | 1021.5 |
| 20260502161807 | 62 | 305 | 3.5 | 4.3 | 0.00 | 0.00 | 0.00 | 40 | 1021.5 |
| 20260502161303 | 62 | 74 | 3.5 | 4.3 | 0.00 | 0.00 | 0.00 | 40 | 1021.5 |
| 20260502160801 | 62 | 9 | 1.7 | 3.5 | 0.00 | 0.00 | 0.00 | 38 | 1021.6 |
| 20260502160300 | 63 | 269 | 1.7 | 2.6 | 0.00 | 0.00 | 0.00 | 42 | 1021.6 |
| 20260502152229 | 59 | 250 | 6.1 | 8.7 | 0.00 | 0.00 | 0.00 | 40 | 1021.5 |
| 20260502151727 | 60 | 0 | 0.9 | 0.9 | 0.00 | 0.00 | 0.00 | 46 | 1021.5 |
| 20260502151224 | 59 | 356 | 1.7 | 3.5 | 0.00 | 0.00 | 0.00 | 41 | 1021.5 |
| 20260502150721 | 59 | 47 | 1.7 | 2.6 | 0.00 | 0.00 | 0.00 | 41 | 1021.6 |
| 20260502150218 | 59 | 290 | 2.6 | 3.5 | 0.00 | 0.00 | 0.00 | 46 | 1021.7 |
| 20260502130606 | 48 | 315 | 0.0 | 0.9 | 0.00 | 0.00 | 0.00 | 97 | 1020.9 |
| 20260502130104 | 47 | 290 | 0.0 | 0.0 | 0.00 | 0.00 | 0.00 | 99 | 1020.9 |
| 20260502123549 | 43 | 297 | 0.0 | 0.0 | 0.00 | 0.00 | 0.00 | 99 | 1020.7 |
| 20260502123046 | 42 | 85 | 0.0 | 0.0 | 0.00 | 0.00 | 0.00 | 99 | 1020.7 |
| 20260502122542 | 42 | 89 | 0.0 | 0.0 | 0.00 | 0.00 | 0.00 | 99 | 1020.5 |
| 20260502122040 | 41 | 89 | 0.0 | 0.0 | 0.00 | 0.00 | 0.00 | 99 | 1020.5 |
| 20260502121537 | 40 | 89 | 0.0 | 0.0 | 0.00 | 0.00 | 0.00 | 99 | 1020.4 |
| 20260502121035 | 40 | 263 | 0.0 | 0.0 | 0.00 | 0.00 | 0.00 | 99 | 1020.4 |
| 20260502120530 | 40 | 257 | 0.0 | 0.0 | 0.00 | 0.00 | 0.00 | 99 | 1020.1 |
| 20260502115526 | 39 | 290 | 0.0 | 0.0 | 0.00 | 0.00 | 0.00 | 99 | 1020.3 |
| 20260502115021 | 39 | 269 | 0.0 | 0.0 | 0.00 | 0.00 | 0.00 | 99 | 1020.2 |
| 20260502114518 | 39 | 279 | 0.0 | 0.0 | 0.00 | 0.00 | 0.00 | 99 | 1019.9 |
| 20260502114015 | 39 | 263 | 0.0 | 0.0 | 0.00 | 0.00 | 0.00 | 99 | 1019.8 |
| 20260502113512 | 39 | 263 | 0.0 | 0.0 | 0.00 | 0.00 | 0.00 | 99 | 1019.8 |
| 20260502113011 | 39 | 263 | 0.0 | 0.0 | 0.00 | 0.00 | 0.00 | 99 | 1020.0 |
| 20260502112508 | 39 | 277 | 0.0 | 0.0 | 0.00 | 0.00 | 0.00 | 98 | 1019.7 |
| 20260502112006 | 39 | 262 | 0.0 | 0.0 | 0.00 | 0.00 | 0.00 | 98 | 1020.0 |
| 20260502111503 | 39 | 225 | 0.0 | 0.0 | 0.00 | 0.00 | 0.00 | 98 | 1019.8 |
| 20260502111000 | 40 | 220 | 0.0 | 0.0 | 0.00 | 0.00 | 0.00 | 98 | 1019.6 |
| 20260502110458 | 40 | 233 | 0.0 | 0.0 | 0.00 | 0.00 | 0.00 | 98 | 1019.5 |
| 20260502105955 | 40 | 319 | 0.0 | 0.0 | 0.00 | 0.00 | 0.00 | 98 | 1019.5 |
| 20260502105453 | 39 | 273 | 0.0 | 0.0 | 0.00 | 0.00 | 0.00 | 98 | 1019.6 |
| 20260502104950 | 39 | 258 | 0.0 | 0.0 | 0.00 | 0.00 | 0.00 | 98 | 1019.6 |
| 20260502104447 | 40 | 258 | 0.0 | 0.0 | 0.00 | 0.00 | 0.00 | 98 | 1019.6 |
| 20260502103944 | 40 | 237 | 0.0 | 0.0 | 0.00 | 0.00 | 0.00 | 98 | 1019.4 |
| 20260502103442 | 40 | 242 | 0.0 | 0.0 | 0.00 | 0.00 | 0.00 | 98 | 1019.6 |
| 20260502102938 | 40 | 251 | 0.0 | 0.0 | 0.00 | 0.00 | 0.00 | 98 | 1019.4 |
| 20260502102436 | 40 | 262 | 0.0 | 0.0 | 0.00 | 0.00 | 0.00 | 98 | 1019.3 |
| 20260502101932 | 40 | 269 | 0.0 | 0.0 | 0.00 | 0.00 | 0.00 | 98 | 1019.2 |
| 20260502101431 | 40 | 210 | 0.9 | 0.9 | 0.00 | 0.00 | 0.00 | 98 | 1019.2 |
| 20260502100928 | 40 | 281 | 0.0 | 0.0 | 0.00 | 0.00 | 0.00 | 98 | 1018.9 |
| 20260502100428 | 40 | 7 | 0.9 | 0.9 | 0.00 | 0.00 | 0.00 | 98 | 1019.0 |
| 20260502091402 | 40 | 256 | 0.0 | 0.0 | 0.00 | 0.00 | 0.00 | 98 | 1018.7 |
| 20260502090859 | 40 | 221 | 0.0 | 0.0 | 0.00 | 0.00 | 0.00 | 98 | 1018.6 |
| 20260502090355 | 40 | 235 | 0.0 | 0.0 | 0.00 | 0.00 | 0.00 | 98 | 1018.7 |
| 20260502071250 | 40 | 224 | 0.0 | 0.0 | 0.00 | 0.00 | 0.00 | 96 | 1018.6 |
| 20260502070749 | 40 | 268 | 0.0 | 0.0 | 0.00 | 0.00 | 0.00 | 96 | 1018.6 |
| 20260502070246 | 40 | 289 | 0.0 | 0.0 | 0.00 | 0.00 | 0.00 | 96 | 1018.8 |
| 20260502065745 | 40 | 278 | 0.0 | 0.0 | 0.00 | 0.00 | 0.00 | 96 | 1018.7 |
| 20260502065242 | 40 | 278 | 0.0 | 0.0 | 0.00 | 0.00 | 0.00 | 96 | 1018.7 |
| 20260502064740 | 41 | 278 | 0.0 | 0.0 | 0.00 | 0.00 | 0.00 | 96 | 1018.7 |
| 20260502064238 | 41 | 278 | 0.0 | 0.0 | 0.00 | 0.00 | 0.00 | 96 | 1018.8 |
| 20260502063735 | 41 | 279 | 0.0 | 0.0 | 0.00 | 0.00 | 0.00 | 95 | 1018.7 |
| 20260502063233 | 41 | 279 | 0.0 | 0.0 | 0.00 | 0.00 | 0.00 | 95 | 1018.7 |
| 20260502062730 | 41 | 279 | 0.0 | 0.0 | 0.00 | 0.00 | 0.00 | 95 | 1018.8 |
| 20260502062227 | 41 | 279 | 0.0 | 0.0 | 0.00 | 0.00 | 0.00 | 95 | 1018.6 |
| 20260502061726 | 41 | 279 | 0.0 | 0.0 | 0.00 | 0.00 | 0.00 | 95 | 1018.7 |
| 20260502061223 | 41 | 279 | 0.0 | 0.0 | 0.00 | 0.00 | 0.00 | 95 | 1018.7 |
| 20260502060718 | 41 | 279 | 0.0 | 0.0 | 0.00 | 0.00 | 0.00 | 95 | 1018.4 |
| 20260502060214 | 41 | 279 | 0.0 | 0.0 | 0.00 | 0.00 | 0.00 | 94 | 1018.5 |
| 20260502055712 | 42 | 279 | 0.0 | 0.0 | 0.00 | 0.00 | 0.00 | 94 | 1018.6 |
| 20260502055210 | 42 | 279 | 0.0 | 0.0 | 0.00 | 0.00 | 0.00 | 94 | 1018.8 |
| 20260502054709 | 42 | 279 | 0.0 | 0.0 | 0.00 | 0.00 | 0.00 | 94 | 1018.7 |
| 20260502054206 | 42 | 279 | 0.0 | 0.0 | 0.00 | 0.00 | 0.00 | 94 | 1018.9 |
| 20260502053703 | 42 | 279 | 0.0 | 0.0 | 0.00 | 0.00 | 0.00 | 94 | 1018.7 |
| 20260502053200 | 42 | 279 | 0.0 | 0.0 | 0.00 | 0.00 | 0.00 | 93 | 1018.5 |
| 20260502052658 | 42 | 279 | 0.0 | 0.0 | 0.00 | 0.00 | 0.00 | 93 | 1018.7 |
| 20260502052156 | 42 | 279 | 0.0 | 0.0 | 0.00 | 0.00 | 0.00 | 93 | 1018.7 |
| 20260502051654 | 43 | 280 | 0.0 | 0.0 | 0.00 | 0.00 | 0.00 | 93 | 1018.7 |
| 20260502051152 | 43 | 276 | 0.0 | 0.0 | 0.00 | 0.00 | 0.00 | 93 | 1018.4 |
| 20260502050648 | 43 | 276 | 0.0 | 0.0 | 0.00 | 0.00 | 0.00 | 92 | 1018.8 |
| 20260502050145 | 43 | 279 | 0.0 | 0.0 | 0.00 | 0.00 | 0.00 | 92 | 1018.8 |
| 20260502045641 | 43 | 269 | 0.0 | 0.0 | 0.00 | 0.00 | 0.00 | 92 | 1018.5 |
| 20260502045139 | 44 | 269 | 0.0 | 0.0 | 0.00 | 0.00 | 0.00 | 92 | 1018.5 |
| 20260502044635 | 44 | 268 | 0.0 | 0.0 | 0.00 | 0.00 | 0.00 | 92 | 1018.6 |
| 20260502044132 | 44 | 269 | 0.0 | 0.0 | 0.00 | 0.00 | 0.00 | 92 | 1018.7 |
| 20260502043630 | 43 | 312 | 0.0 | 0.0 | 0.00 | 0.00 | 0.00 | 92 | 1018.9 |
| 20260502043127 | 43 | 312 | 0.0 | 0.0 | 0.00 | 0.00 | 0.00 | 92 | 1018.7 |
| 20260502042620 | 43 | 312 | 0.0 | 0.0 | 0.00 | 0.00 | 0.00 | 91 | 1018.8 |
| 20260502042118 | 43 | 312 | 0.0 | 0.0 | 0.00 | 0.00 | 0.00 | 91 | 1018.7 |
| 20260502041615 | 43 | 312 | 0.0 | 0.0 | 0.00 | 0.00 | 0.00 | 91 | 1018.7 |
| 20260502041112 | 43 | 312 | 0.0 | 0.0 | 0.00 | 0.00 | 0.00 | 90 | 1018.5 |
| 20260502040609 | 44 | 312 | 0.0 | 0.0 | 0.00 | 0.00 | 0.00 | 90 | 1018.7 |
| 20260502040106 | 44 | 312 | 0.0 | 0.0 | 0.00 | 0.00 | 0.00 | 89 | 1018.7 |
| 20260502035602 | 44 | 312 | 0.0 | 0.0 | 0.00 | 0.00 | 0.00 | 89 | 1018.6 |
| 20260502035059 | 44 | 312 | 0.0 | 0.0 | 0.00 | 0.00 | 0.00 | 88 | 1018.7 |
| 20260502034557 | 44 | 312 | 0.0 | 0.0 | 0.00 | 0.00 | 0.00 | 88 | 1018.6 |
| 20260502034055 | 45 | 312 | 0.0 | 0.0 | 0.00 | 0.00 | 0.00 | 88 | 1018.8 |
| 20260502033553 | 45 | 312 | 0.0 | 0.0 | 0.00 | 0.00 | 0.00 | 88 | 1018.7 |
| 20260502033051 | 45 | 312 | 0.0 | 0.0 | 0.00 | 0.00 | 0.00 | 87 | 1018.7 |
| 20260502032546 | 45 | 312 | 0.0 | 0.0 | 0.00 | 0.00 | 0.00 | 87 | 1018.8 |
| 20260502032043 | 46 | 312 | 0.0 | 0.0 | 0.00 | 0.00 | 0.00 | 86 | 1018.6 |
| 20260502031541 | 46 | 312 | 0.0 | 0.0 | 0.00 | 0.00 | 0.00 | 86 | 1018.7 |
| 20260502031039 | 46 | 312 | 0.0 | 0.0 | 0.00 | 0.00 | 0.00 | 85 | 1018.7 |
| 20260502030537 | 46 | 312 | 0.0 | 0.0 | 0.00 | 0.00 | 0.00 | 85 | 1018.7 |
| 20260502030035 | 46 | 312 | 0.0 | 0.0 | 0.00 | 0.00 | 0.00 | 84 | 1018.5 |
| 20260502025532 | 46 | 312 | 0.0 | 0.0 | 0.00 | 0.00 | 0.00 | 84 | 1018.7 |
| 20260502025030 | 47 | 312 | 0.0 | 0.0 | 0.00 | 0.00 | 0.00 | 83 | 1018.6 |
| 20260502024527 | 47 | 312 | 0.0 | 0.0 | 0.00 | 0.00 | 0.00 | 82 | 1018.7 |
| 20260502024025 | 47 | 312 | 0.0 | 0.0 | 0.00 | 0.00 | 0.00 | 82 | 1018.5 |
| 20260502023523 | 47 | 312 | 0.0 | 0.0 | 0.00 | 0.00 | 0.00 | 81 | 1018.5 |
| 20260502023020 | 48 | 312 | 0.0 | 0.0 | 0.00 | 0.00 | 0.00 | 79 | 1018.4 |
| 20260502022517 | 48 | 313 | 0.0 | 0.0 | 0.00 | 0.00 | 0.00 | 78 | 1018.5 |
| 20260502022015 | 48 | 313 | 0.0 | 0.0 | 0.00 | 0.00 | 0.00 | 78 | 1018.3 |
| 20260502021512 | 49 | 313 | 0.0 | 0.0 | 0.00 | 0.00 | 0.00 | 77 | 1018.3 |
| 20260502021008 | 49 | 313 | 0.0 | 0.0 | 0.00 | 0.00 | 0.00 | 76 | 1018.1 |
| 20260502020506 | 49 | 313 | 0.0 | 0.0 | 0.00 | 0.00 | 0.00 | 76 | 1018.2 |
| 20260502020002 | 49 | 313 | 0.0 | 0.0 | 0.00 | 0.00 | 0.00 | 75 | 1018.2 |
| 20260502015500 | 50 | 313 | 0.0 | 0.0 | 0.00 | 0.00 | 0.00 | 74 | 1018.2 |
| 20260502014957 | 50 | 313 | 0.0 | 0.0 | 0.00 | 0.00 | 0.00 | 73 | 1018.1 |
| 20260502014454 | 50 | 313 | 0.0 | 0.0 | 0.00 | 0.00 | 0.00 | 72 | 1018.1 |
| 20260502013950 | 51 | 313 | 0.0 | 0.0 | 0.00 | 0.00 | 0.00 | 71 | 1018.0 |
| 20260502013446 | 51 | 313 | 0.0 | 0.0 | 0.00 | 0.00 | 0.00 | 70 | 1018.0 |
| 20260502012942 | 52 | 313 | 0.0 | 0.0 | 0.00 | 0.00 | 0.00 | 69 | 1017.8 |
| 20260502012440 | 52 | 313 | 0.0 | 0.0 | 0.00 | 0.00 | 0.00 | 66 | 1017.8 |
| 20260502011937 | 53 | 313 | 0.0 | 0.0 | 0.00 | 0.00 | 0.00 | 66 | 1017.7 |
| 20260502011433 | 53 | 313 | 0.0 | 0.0 | 0.00 | 0.00 | 0.00 | 63 | 1017.7 |
| 20260502010930 | 54 | 313 | 0.0 | 0.0 | 0.00 | 0.00 | 0.00 | 62 | 1017.5 |
| 20260502010427 | 55 | 313 | 0.0 | 0.0 | 0.00 | 0.00 | 0.00 | 60 | 1017.5 |
| 20260502005923 | 55 | 313 | 0.0 | 0.0 | 0.00 | 0.00 | 0.00 | 57 | 1017.6 |
| 20260502005421 | 57 | 313 | 0.0 | 0.0 | 0.00 | 0.00 | 0.00 | 55 | 1017.3 |
| 20260502004919 | 58 | 314 | 0.0 | 0.0 | 0.00 | 0.00 | 0.00 | 52 | 1017.5 |
| 20260502004415 | 58 | 314 | 0.0 | 0.9 | 0.00 | 0.00 | 0.00 | 44 | 1017.2 |
| 20260502003913 | 58 | 314 | 0.0 | 0.9 | 0.00 | 0.00 | 0.00 | 46 | 1017.2 |
| 20260502003410 | 59 | 283 | 0.0 | 0.0 | 0.00 | 0.00 | 0.00 | 46 | 1017.2 |
| 20260502002906 | 59 | 283 | 0.0 | 0.0 | 0.00 | 0.00 | 0.00 | 44 | 1017.1 |
| 20260502002404 | 60 | 287 | 0.0 | 0.0 | 0.00 | 0.00 | 0.00 | 43 | 1017.0 |
| 20260502001901 | 60 | 269 | 0.0 | 0.0 | 0.00 | 0.00 | 0.00 | 43 | 1016.8 |
| 20260502001358 | 60 | 248 | 0.0 | 0.0 | 0.00 | 0.00 | 0.00 | 40 | 1016.9 |
| 20260502000855 | 61 | 282 | 0.0 | 0.0 | 0.00 | 0.00 | 0.00 | 42 | 1016.8 |
| 20260502000354 | 61 | 5 | 1.7 | 2.6 | 0.00 | 0.00 | 0.00 | 37 | 1016.6 |
| 20260501235849 | 62 | 79 | 0.0 | 0.9 | 0.00 | 0.00 | 0.00 | 38 | 1016.8 |
| 20260501235344 | 63 | 251 | 0.0 | 0.9 | 0.00 | 0.00 | 0.00 | 36 | 1016.7 |
| 20260501234840 | 64 | 247 | 0.0 | 0.0 | 0.00 | 0.00 | 0.00 | 38 | 1016.7 |
| 20260501234337 | 65 | 292 | 0.9 | 0.9 | 0.00 | 0.00 | 0.00 | 34 | 1016.6 |
| 20260501233836 | 65 | 282 | 0.0 | 0.0 | 0.00 | 0.00 | 0.00 | 34 | 1016.8 |
| 20260501233333 | 65 | 68 | 1.7 | 2.6 | 0.00 | 0.00 | 0.00 | 33 | 1016.7 |
| 20260501232828 | 65 | 347 | 3.5 | 4.3 | 0.00 | 0.00 | 0.00 | 32 | 1016.8 |
| 20260501232326 | 65 | 314 | 1.7 | 2.6 | 0.00 | 0.00 | 0.00 | 34 | 1016.7 |
| 20260501231823 | 66 | 295 | 3.5 | 4.3 | 0.00 | 0.00 | 0.00 | 34 | 1016.6 |
| 20260501231321 | 67 | 247 | 0.9 | 0.9 | 0.00 | 0.00 | 0.00 | 37 | 1016.8 |
| 20260501230819 | 65 | 287 | 0.0 | 0.9 | 0.00 | 0.00 | 0.00 | 34 | 1016.6 |
| 20260501230318 | 65 | 120 | 1.7 | 2.6 | 0.00 | 0.00 | 0.00 | 33 | 1016.8 |
| 20260501225815 | 65 | 46 | 1.7 | 2.6 | 0.00 | 0.00 | 0.00 | 35 | 1016.8 |
| 20260501225313 | 66 | 293 | 1.7 | 2.6 | 0.00 | 0.00 | 0.00 | 33 | 1016.8 |
| 20260501224809 | 67 | 272 | 0.0 | 0.9 | 0.00 | 0.00 | 0.00 | 36 | 1016.8 |
| 20260501224306 | 67 | 246 | 2.6 | 3.5 | 0.00 | 0.00 | 0.00 | 33 | 1016.8 |
| 20260501223802 | 67 | 247 | 1.7 | 2.6 | 0.00 | 0.00 | 0.00 | 33 | 1016.8 |
| 20260501223258 | 66 | 265 | 0.0 | 0.0 | 0.00 | 0.00 | 0.00 | 36 | 1016.8 |
| 20260501222754 | 68 | 281 | 2.6 | 3.5 | 0.00 | 0.00 | 0.00 | 35 | 1016.6 |
| 20260501222252 | 66 | 276 | 0.0 | 0.9 | 0.00 | 0.00 | 0.00 | 36 | 1016.7 |